Weather History for KCPW - December, 2013

Change the Weather History Date:

Tuesday, December 10, 2013

  Actual Average (KALS) Record (KALS)
Temperature  
Mean Temperature 8 °F 19 °F  
Max Temperature 15 °F 36 °F 55 °F (2010)
Min Temperature 0 °F 2 °F -24 °F (1978)
Degree Days  
Heating Degree Days 58 46  
Month to date heating degree days 447  
Since 1 July heating degree days 2622  
Cooling Degree Days 0 0  
Month to date cooling degree days 0  
Year to date cooling degree days 51  
Moisture  
Dew Point 0 °F    
Average Humidity 69    
Maximum Humidity 92    
Minimum Humidity 52    
Precipitation  
Precipitation 0.00 in 0.01 in 0.47 in (1961)
Month to date precipitation 0.12  
Year to date precipitation 7.08  
Snow  
Snow 0.00 in 0.20 in 6.60 in (1961)
Month to date snowfall 1.5  
Since 1 July snowfall 7.3  
Snow Depth -    
Sea Level Pressure  
Sea Level Pressure 30.16 in    
Wind  
Wind Speed 14 mph (SW)    
Max Wind Speed 21 mph    
Max Gust Speed 26 mph    
T = Trace of Precipitation, MM = Missing Value Source: NWS Daily Summary

Daily Weather History Graph

Daily Weather History Graph

Search for Another Location

Airport or City:

Trip Planner

Search our weather history database for the weather conditions in past years. The results will help you decide how hot, cold, wet, or windy it might be!

Date:

Astronomy

Dec. 10, 2013 Rise Set
Actual Time 7:11 AM MST 4:49 PM MST
Civil Twilight 6:41 AM MST 5:18 PM MST
Nautical Twilight 6:09 AM MST 5:51 PM MST
Astronomical Twilight 5:37 AM MST 6:22 PM MST
Moon 12:45 PM MST (12/10) 12:39 AM MST (12/10)
Length of Visible Light 10h 36m
Length of Day
9h 38m
Waxing Gibbous, 62% of the Moon is Illuminated
Dec 10
Waxing Gibbous
Dec 17
Full
Dec 25
Last Quarter
Jan 1
New
Jan 7
First Quarter

Hourly Weather History & Observations

Time (MST) Temp. Windchill Dew Point Humidity Pressure Visibility Wind Dir Wind Speed Gust Speed Precip Events Conditions
12:12 AM -0.4 °F -22.8 °F -4.0 °F 85% 30.14 in - SW 20.7 mph - N/A   Unknown
12:32 AM -0.4 °F -22.3 °F -4.0 °F 85% 30.15 in - SW 19.6 mph - N/A   Unknown
12:52 AM 1.4 °F -18.2 °F -2.2 °F 85% 30.16 in - SW 16.1 mph - N/A   Mostly Cloudy
1:12 AM -0.4 °F -22.3 °F -4.0 °F 85% 30.16 in - WSW 19.6 mph - N/A   Unknown
1:32 AM 1.4 °F -20.5 °F -0.4 °F 92% 30.17 in - WSW 20.7 mph - N/A   Unknown
1:52 AM 1.4 °F -18.8 °F -2.2 °F 85% 30.17 in - SW 17.3 mph - N/A   Unknown
2:12 AM -0.4 °F -19.9 °F -4.0 °F 85% 30.17 in - SW 15.0 mph - N/A   Unknown
2:32 AM -0.4 °F -19.2 °F -5.8 °F 78% 30.17 in - SSW 13.8 mph - N/A   Unknown
2:52 AM -0.4 °F -21.7 °F -5.8 °F 78% 30.17 in - SW 18.4 mph - N/A   Clear
3:12 AM -0.4 °F -19.9 °F -5.8 °F 78% 30.17 in - SW 15.0 mph - N/A   Scattered Clouds
3:32 AM -0.4 °F -19.2 °F -7.6 °F 72% 30.17 in - SSW 13.8 mph - N/A   Mostly Cloudy
3:52 AM -0.4 °F -20.5 °F -7.6 °F 72% 30.17 in - SW 16.1 mph 26.5 mph N/A   Scattered Clouds
4:12 AM 1.4 °F -17.6 °F -7.6 °F 66% 30.17 in - SW 15.0 mph - N/A   Clear
4:32 AM 1.4 °F -16.9 °F -7.6 °F 66% 30.17 in - SSW 13.8 mph - N/A   Scattered Clouds
4:52 AM 1.4 °F -16.1 °F -7.6 °F 66% 30.16 in - SSW 12.7 mph - N/A   Scattered Clouds
5:12 AM 3.2 °F -14.6 °F -7.6 °F 61% 30.16 in - SW 13.8 mph - N/A   Scattered Clouds
5:32 AM 5.0 °F -12.3 °F -5.8 °F 61% 30.16 in - WSW 13.8 mph - N/A   Clear
5:52 AM 5.0 °F -10.0 °F -7.6 °F 56% 30.16 in - SW 10.4 mph - N/A   Scattered Clouds
6:12 AM 5.0 °F -8.1 °F -4.0 °F 66% 30.16 in - WSW 8.1 mph - N/A   Clear
6:32 AM 8.6 °F -5.5 °F -4.0 °F 57% 30.16 in - West 10.4 mph 16.1 mph N/A   Clear
6:52 AM 8.6 °F -6.3 °F -4.0 °F 57% 30.16 in - West 11.5 mph 16.1 mph N/A   Clear
7:12 AM 8.6 °F -5.5 °F -4.0 °F 57% 30.16 in - West 10.4 mph - N/A   Clear
7:32 AM 6.8 °F -8.6 °F -5.8 °F 56% 30.16 in - WSW 11.5 mph - N/A   Clear
7:52 AM 8.6 °F -6.3 °F -4.0 °F 57% 30.16 in - WSW 11.5 mph - N/A   Clear
8:12 AM 8.6 °F -6.3 °F -5.8 °F 52% 30.17 in - SSW 11.5 mph - N/A   Clear
8:32 AM 8.6 °F -6.3 °F -5.8 °F 52% 30.17 in - SSW 11.5 mph - N/A   Clear
8:52 AM 10.4 °F -5.4 °F -4.0 °F 52% 30.17 in - SW 13.8 mph - N/A   Clear
9:12 AM 10.4 °F -4.1 °F -0.4 °F 62% 30.17 in - SW 11.5 mph - N/A   Clear
9:32 AM 12.2 °F -1.8 °F 1.4 °F 62% 30.17 in - SW 11.5 mph - N/A   Clear
9:52 AM 12.2 °F -1.8 °F 1.4 °F 62% 30.17 in - SSW 11.5 mph - N/A   Clear
10:12 AM 12.2 °F -1.0 °F 1.4 °F 62% 30.19 in - SW 10.4 mph - N/A   Clear
10:32 AM 14.0 °F 1.2 °F 3.2 °F 62% 30.17 in - SSW 10.4 mph - N/A   Clear
10:52 AM 14.0 °F 0.5 °F 1.4 °F 57% 30.17 in - SSW 11.5 mph - N/A   Clear
11:12 AM 14.0 °F 0.5 °F 3.2 °F 62% 30.17 in - SSW 11.5 mph - N/A   Clear
11:32 AM 14.0 °F -0.2 °F 3.2 °F 62% 30.17 in - SSW 12.7 mph 16.1 mph N/A   Clear
11:52 AM 15.8 °F 2.1 °F 5.0 °F 62% 30.16 in - SW 12.7 mph 16.1 mph N/A   Clear
12:12 PM 15.8 °F 1.4 °F 5.0 °F 62% 30.14 in - SSW 13.8 mph 19.6 mph N/A   Clear
12:32 PM 15.8 °F 2.1 °F 6.8 °F 68% 30.14 in - SSW 12.7 mph 17.3 mph N/A   Clear
12:52 PM 14.0 °F 0.5 °F 6.8 °F 73% 30.14 in - SW 11.5 mph - N/A   Clear
1:12 PM 14.0 °F 2.0 °F 6.8 °F 73% 30.13 in - SW 9.2 mph 18.4 mph N/A   Clear
1:32 PM 14.0 °F -0.2 °F 8.6 °F 79% 30.13 in - SSW 12.7 mph - N/A   Clear
1:52 PM 14.0 °F 0.5 °F 6.8 °F 73% 30.13 in - SSW 11.5 mph - N/A   Clear
2:12 PM 14.0 °F 2.9 °F 6.8 °F 73% 30.13 in - SW 8.1 mph - N/A   Clear
2:32 PM 14.0 °F -0.8 °F 6.8 °F 73% 30.12 in - SW 13.8 mph 17.3 mph N/A   Clear
2:52 PM 14.0 °F -2.5 °F 5.0 °F 67% 30.12 in - SW 17.3 mph 24.2 mph N/A   Clear
3:12 PM 12.2 °F -2.5 °F 5.0 °F 73% 30.12 in - SSW 12.7 mph - N/A   Clear
3:32 PM 12.2 °F -3.7 °F 3.2 °F 67% 30.12 in - SW 15.0 mph - N/A   Clear
3:52 PM 12.2 °F -0.2 °F 3.2 °F 67% 30.12 in - SSW 9.2 mph - N/A   Clear
4:12 PM 12.2 °F -2.5 °F 3.2 °F 67% 30.13 in - SW 12.7 mph 16.1 mph N/A   Clear
4:32 PM 10.4 °F -4.8 °F 3.2 °F 73% 30.13 in - SSW 12.7 mph - N/A   Clear
4:52 PM 10.4 °F -5.4 °F 3.2 °F 73% 30.13 in - SW 13.8 mph - N/A   Clear
5:12 PM 8.6 °F -7.7 °F 1.4 °F 73% 30.12 in - SW 13.8 mph - N/A   Clear
5:32 PM 8.6 °F -7.7 °F 1.4 °F 73% 30.13 in - SSW 13.8 mph - N/A   Clear
5:52 PM 8.6 °F -7.7 °F 3.2 °F 79% 30.13 in - SSW 13.8 mph - N/A   Clear
6:12 PM 8.6 °F -7.7 °F 3.2 °F 79% 30.13 in - SSW 13.8 mph - N/A   Clear
6:32 PM 8.6 °F -7.7 °F 3.2 °F 79% 30.13 in - SSW 13.8 mph - N/A   Clear
6:52 PM 8.6 °F -7.0 °F 3.2 °F 79% 30.14 in - SSW 12.7 mph - N/A   Clear
7:12 PM 8.6 °F -7.0 °F 3.2 °F 79% 30.14 in - SSW 12.7 mph - N/A   Clear
7:32 PM 8.6 °F -7.7 °F 3.2 °F 79% 30.14 in - SSW 13.8 mph - N/A   Clear
7:52 PM 8.6 °F -7.7 °F 3.2 °F 79% 30.14 in - SSW 13.8 mph - N/A   Clear
8:12 PM 8.6 °F -7.0 °F 3.2 °F 79% 30.15 in - SW 12.7 mph - N/A   Clear
8:32 PM 8.6 °F -7.0 °F 3.2 °F 79% 30.16 in - SW 12.7 mph - N/A   Clear
8:52 PM 10.4 °F -3.3 °F 3.2 °F 73% 30.17 in - SW 10.4 mph - N/A   Clear
9:12 PM 12.2 °F -2.5 °F 1.4 °F 62% 30.17 in - WSW 12.7 mph - N/A   Clear
9:32 PM 12.2 °F -1.8 °F 1.4 °F 62% 30.17 in - WSW 11.5 mph - N/A   Clear
9:52 PM 10.4 °F -0.4 °F 1.4 °F 67% 30.17 in - SW 6.9 mph - N/A   Clear
10:12 PM 12.2 °F 1.7 °F 1.4 °F 62% 30.17 in - SW 6.9 mph - N/A   Clear
10:32 PM 12.2 °F 4.3 °F 1.4 °F 62% 30.18 in - SSW 4.6 mph - N/A   Clear
10:52 PM 12.2 °F 6.1 °F -0.4 °F 57% 30.19 in - SSW 3.5 mph - N/A   Clear
11:12 PM 14.0 °F - -0.4 °F 53% 30.19 in - Calm Calm - N/A   Clear
11:32 PM 12.2 °F 0.7 °F -0.4 °F 57% 30.19 in - WSW 8.1 mph - N/A   Clear
11:52 PM 12.2 °F 2.9 °F -0.4 °F 57% 30.19 in - West 5.8 mph - N/A   Clear